Location: The D'Auria's Ocala Star Observatory
(29.0276°N, 82.1742°W)
Time: 16:38:55
(UTC-04:00)

Okean 3 Rocket - Visible Passes

Search period start: 01 October 2016 00:00
Search period end: 11 October 2016 00:00
Orbit: 616 x 645 km, 82.5° (Epoch: 01 October)

Date Brightness Start Highest point End Pass type
(mag) Time Alt. Az. Time Alt. Az. Time Alt. Az.
01 Oct 7.1 20:39:48 10° WNW 20:41:48 13° W 20:43:47 10° WSW visible
03 Oct 5.3 19:41:41 10° NNW 19:45:55 40° W 19:50:08 10° SSW visible
04 Oct 7.6 06:33:40 10° E 06:34:31 10° E 06:35:22 10° ENE visible
04 Oct 6.8 20:03:34 10° NW 20:06:38 18° W 20:09:42 10° SW visible
05 Oct 6.4 06:51:37 10° SE 06:55:10 24° E 06:58:45 10° NE visible
07 Oct 6.4 19:27:44 10° NW 19:31:27 25° W 19:35:09 10° SW visible
08 Oct 6.8 06:17:06 10° SE 06:19:58 17° E 06:22:53 10° NE visible
08 Oct 7.4 19:50:42 10° WNW 19:52:07 11° W 19:53:31 10° WSW visible
09 Oct 5.3 06:36:35 10° SSE 06:40:41 38° E 06:44:50 10° NNE visible
10 Oct 3.7 06:57:03 10° S 07:01:30 89° E 07:06:01 10° N visible
